sat.trackr.live / text

‹ back to catalog

ONEWEB-0024

NORAD 45137 · 2020-008G

PAYLOAD ACTIVE UNKNOWN

§ Identity

Operator
Country
UK
Launch date
2020-02-06
Launch site
TYMSC
Launch vehicle
Mass (kg)
RCS (m²)

Purposes: comms

External: N2YO · Heavens-Above · Gunter

§ Orbital elements

Epoch: 2026-09-20T02:37:06.222720Z

Period
109.89 min
Inclination
87.8913°
Eccentricity
0.0001729
Mean motion
13.10370835 rev/d
Perigee alt
1,220.4 km
Apogee alt
1,223.0 km
Semi-major
7,599.9 km
B*
-1.4945e-3
RAAN
17.3698°
Arg perigee
99.5130°
Mean anomaly
260.6193°
Rev number
32,067

§ Raw data

ONEWEB-00241 45137U 20008G   26263.10909980 -.00000509  00000+0 -14945-2 0  99952 45137  87.8913  17.3698 0001729  99.5130 260.6193 13.10370835320674

JSON: /api/v1/satellites/45137 · /tle

For live sub-satellite position, see the globe view (requires WebGL).

§ Visibility from observer

Set your observer location to see the next 7 days of passes ≥ 10°. The values pass through the URL so the page stays shareable.

No JS? Fill the form by hand. The geolocation button needs JavaScript.